Theta_e
312 311 311 312 311 306 310 311 310 312 340 339 341 344 343 343 342 341 338 338 340 340 339 333 328 326 326 325 320 315 312 310 310 311 311 311 312 314 317 322 325 325 325 326 323 320 321 322 323
311 311 314 305 306 308 306 308 318 330 331 331 329 340 345 347 341 340 338 340 339 339 338 333 328 326 327 324 319 315 311 309 309 309 310 311 311 314 318 321 324 324 325 325 319 318 322 322 321
313 318 313 306 302 307 307 309 333 332 330 330 329 331 341 345 341 340 338 339 339 339 338 333 329 329 328 324 318 314 311 309 309 311 311 314 316 316 317 318 322 324 324 322 317 316 315 316 318
315 312 303 307 307 307 308 310 327 332 330 328 328 335 339 337 339 339 340 340 340 339 338 334 329 329 328 323 316 313 310 309 313 312 315 322 322 317 314 315 318 321 323 321 317 316 315 315 317
311 304 306 307 307 308 322 330 330 333 332 331 330 340 339 337 337 339 339 338 338 339 338 334 330 329 327 321 315 314 310 312 317 319 321 324 317 315 314 314 318 318 318 319 318 317 316 315 314
309 302 306 307 309 310 329 330 330 332 332 332 335 337 339 334 336 337 338 337 337 338 337 334 328 329 326 321 313 313 312 318 316 320 320 317 315 314 314 314 314 315 318 320 319 318 317 316 316
310 307 309 310 311 313 330 329 330 330 330 328 329 337 336 332 331 334 334 333 334 335 335 334 330 329 323 317 315 312 313 314 317 317 315 313 313 313 314 315 314 315 318 320 320 319 319 318 317
307 307 311 309 309 315 326 328 327 328 328 326 328 337 337 330 328 330 329 327 328 328 328 327 325 320 318 317 317 313 312 313 315 313 312 312 313 314 315 315 316 317 318 319 320 319 318 317 316
305 308 308 310 314 321 326 328 325 326 331 332 332 332 332 327 326 326 325 325 323 323 322 320 318 320 323 318 316 311 316 315 312 312 313 314 315 315 315 316 317 319 320 320 320 319 317 316 314
308 308 310 310 314 325 326 326 327 328 332 333 334 333 331 327 326 325 325 324 324 322 321 320 319 318 317 319 313 310 312 312 313 314 314 314 314 315 316 318 319 321 321 321 318 317 315 314 313
308 311 310 312 322 324 323 325 325 327 329 332 333 334 330 329 327 326 325 323 323 322 322 320 320 320 320 317 313 312 314 314 315 315 319 319 316 316 319 322 322 321 319 317 316 315 313 312 311
312 309 312 318 324 323 325 322 324 325 327 330 331 331 327 328 329 327 326 325 324 321 319 320 320 319 321 322 315 313 315 314 317 321 324 323 323 321 320 322 320 318 315 315 314 313 311 310 309
311 311 313 321 323 325 323 324 326 331 328 329 329 328 329 329 327 328 328 325 323 321 321 323 326 325 325 320 317 315 316 317 319 323 324 324 324 324 323 322 318 317 315 314 312 311 310 309 308
312 314 321 323 324 325 325 325 326 331 329 329 329 328 327 327 326 326 326 324 322 322 323 326 327 329 325 320 318 316 320 323 324 326 326 325 325 323 320 318 317 315 313 312 311 310 309 308 307
317 323 323 323 323 323 323 324 327 331 330 330 329 325 326 326 326 326 326 324 321 321 322 324 328 330 326 321 319 319 328 329 328 327 326 324 323 321 319 318 316 313 311 310 310 309 308 307 305
315 317 317 324 324 322 319 324 325 331 332 331 330 328 327 326 327 325 326 325 323 322 322 323 328 330 327 321 323 326 328 328 327 327 326 325 323 320 319 316 313 311 310 309 308 308 307 305 301
311 314 315 324 324 322 321 321 324 328 332 332 331 329 327 327 327 326 325 325 324 323 325 326 327 330 328 322 323 328 327 325 324 323 322 322 322 318 315 312 311 309 309 308 308 306 302 300 300
317 316 315 317 323 324 322 320 322 324 327 331 331 331 330 328 327 327 325 325 325 326 328 329 329 330 327 323 326 327 325 323 319 319 320 320 316 313 312 311 309 308 308 307 303 301 300 299 300
317 317 317 314 314 324 323 321 323 323 326 328 328 329 331 331 329 327 326 324 326 328 330 330 330 330 327 326 326 323 321 319 318 318 317 315 315 312 311 310 308 307 306 303 301 300 300 300 300
318 318 317 316 312 319 319 321 322 323 327 328 326 326 327 328 328 327 327 326 327 329 330 330 330 330 328 327 326 324 319 318 317 315 314 313 313 310 309 308 307 305 302 298 298 298 299 300 300
318 318 317 317 313 312 316 317 326 324 323 323 323 323 324 323 328 328 328 329 329 330 331 330 330 331 330 326 323 320 319 317 314 312 311 311 310 309 308 307 303 299 298 296 296 296 297 299 299
319 317 316 317 312 313 313 315 314 324 326 323 321 320 321 321 325 326 328 329 328 328 329 329 330 330 327 325 323 321 320 315 313 312 310 308 308 308 305 301 299 298 296 295 295 296 298 299 299
318 317 317 317 316 316 318 316 314 321 326 326 325 319 319 320 320 323 324 328 328 328 329 328 328 327 326 326 325 322 319 315 314 310 308 308 306 303 300 299 297 296 294 295 295 296 298 298 298
317 318 314 315 315 318 319 317 316 317 324 327 326 323 319 318 318 319 322 326 328 327 327 327 328 328 326 325 324 322 319 315 311 308 307 305 302 300 298 297 296 297 301 296 295 296 298 297 296
316 314 315 316 319 319 319 320 318 315 314 318 321 321 319 318 318 320 321 323 326 327 326 326 327 326 326 325 323 323 322 319 313 309 307 302 299 297 297 296 297 300 295 293 293 296 297 297 296
318 316 316 316 318 317 320 320 317 317 315 314 313 312 314 317 318 322 324 324 325 326 326 326 325 325 326 326 325 324 324 320 315 311 308 305 301 299 298 296 300 299 300 293 293 294 296 297 297
318 318 314 319 317 321 317 317 313 316 318 318 317 318 314 316 317 322 325 326 326 326 327 327 325 325 325 326 326 325 323 321 316 311 308 304 301 298 296 299 301 295 293 293 293 294 294 296 297
318 316 319 317 323 324 318 317 314 315 318 320 319 320 320 318 319 322 324 327 327 327 327 327 326 326 326 326 326 326 323 321 315 311 305 301 299 298 297 300 295 294 294 293 294 294 294 296 295
317 318 315 316 315 318 317 316 311 313 315 318 316 316 317 320 320 322 323 326 326 327 327 326 327 327 326 326 325 325 321 316 311 308 305 303 299 297 299 295 295 295 295 294 293 294 294 293 293
316 316 315 316 317 313 313 315 312 309 310 312 312 313 314 318 319 320 320 322 322 323 324 326 324 321 322 323 320 317 314 309 310 308 304 300 298 299 296 296 296 296 295 294 294 294 294 293 293
Wind_Speed
3 2 2 5 4 5 3 6 3 5 2 1 2 5 5 7 3 2 3 12 25 34 33 32 33 33 33 32 31 30 30 29 29 29 28 29 30 31 33 33 30 28 28 26 28 27 28 27 25
5 3 4 3 4 2 5 4 3 2 3 4 4 4 5 5 2 5 5 17 27 29 30 31 31 32 33 32 30 30 30 31 30 29 28 29 32 33 32 32 30 29 28 27 30 29 26 25 23
5 2 3 4 4 5 4 3 2 2 4 2 3 4 4 4 2 2 12 22 25 26 29 30 31 32 32 31 29 28 31 31 30 28 29 29 30 32 32 31 30 28 27 27 27 26 24 23 20
3 4 4 4 4 5 5 6 3 2 2 5 2 5 5 7 5 6 18 19 24 25 29 29 29 30 30 30 29 28 31 30 29 28 28 26 27 30 31 30 29 27 26 23 25 23 22 23 21
3 3 3 2 4 4 4 3 4 3 2 3 3 4 4 4 12 18 18 19 20 23 28 29 29 31 29 27 28 27 30 28 27 27 27 25 29 29 27 27 26 25 24 24 22 20 21 21 22
4 3 4 1 3 5 3 2 1 2 0 2 5 3 3 9 16 16 18 15 14 15 24 27 29 25 27 25 27 27 26 26 26 26 26 27 28 27 25 23 22 20 19 19 20 18 18 18 17
5 3 2 2 3 5 1 1 1 4 2 4 3 4 3 9 14 16 15 13 12 12 16 20 28 28 23 24 23 26 25 25 24 25 26 26 26 24 22 20 18 17 16 16 17 17 15 15 14
4 4 1 3 3 5 2 1 1 3 3 2 3 5 5 6 22 19 21 27 26 27 24 29 31 32 21 22 21 23 23 25 24 25 25 25 24 22 20 17 16 14 14 13 12 13 13 13 13
3 4 2 4 2 4 1 2 3 4 6 4 3 2 14 20 28 29 27 27 34 37 34 37 41 21 17 18 17 19 20 23 24 24 24 24 22 19 17 14 13 11 11 10 9 10 11 11 11
4 3 6 5 2 2 2 1 3 4 3 5 9 12 17 21 19 20 19 19 23 31 37 34 30 18 17 15 13 13 17 20 23 23 22 20 18 17 15 13 11 10 9 10 11 11 11 10 10
4 4 5 6 4 2 1 1 1 8 2 4 14 10 9 14 15 17 18 20 25 34 37 37 23 21 25 15 15 17 19 21 20 20 19 17 17 15 14 12 11 12 12 12 11 10 10 11 11
3 8 6 2 6 4 3 4 4 4 2 11 12 15 12 12 12 15 16 17 22 27 41 39 39 29 18 15 14 15 19 22 21 18 16 16 15 14 13 11 13 12 11 11 10 10 11 10 8
4 4 3 4 6 4 6 5 6 4 10 10 11 11 12 8 7 10 13 20 26 32 38 37 29 23 18 14 16 17 18 19 18 16 14 14 13 14 13 14 13 11 9 9 10 10 9 7 7
4 3 2 3 6 3 9 4 4 3 3 8 9 8 9 9 11 11 13 18 26 26 27 30 22 16 18 14 17 19 17 17 18 16 14 13 14 15 14 13 12 11 10 9 8 7 7 7 8
2 3 3 3 3 3 7 2 4 14 12 8 9 7 6 8 11 13 16 18 26 26 26 28 20 16 18 15 18 19 16 16 17 17 17 15 13 13 13 12 12 11 11 9 7 6 6 6 8
2 3 2 4 1 4 3 1 5 14 14 11 8 5 3 4 11 15 20 20 23 24 26 23 20 18 19 18 19 18 19 17 17 17 16 15 14 13 13 13 13 13 10 7 5 4 4 6 6
6 1 3 2 7 4 3 3 9 11 12 12 10 9 6 5 10 19 24 26 30 29 25 24 23 21 22 20 21 22 21 19 16 15 14 13 13 15 15 15 14 11 8 6 4 3 4 5 3
1 3 3 2 3 3 1 3 8 13 10 13 12 10 10 9 14 21 26 30 29 28 26 26 24 23 24 22 22 24 21 18 15 14 13 14 17 18 16 14 13 9 6 4 2 3 5 5 4
2 1 3 4 5 6 9 5 9 10 8 9 11 12 12 14 16 17 23 26 28 27 28 28 28 26 26 24 26 26 23 18 17 15 15 16 17 16 15 13 10 7 4 4 2 3 5 6 5
3 2 6 4 4 6 2 4 4 9 9 13 13 12 13 11 8 14 21 26 31 32 32 31 31 31 32 31 30 27 25 22 19 18 16 15 17 16 14 11 8 7 5 4 3 4 6 4 4
4 3 5 5 3 4 3 4 3 4 3 6 8 9 9 12 12 12 18 28 32 35 38 38 38 36 35 36 34 25 24 20 20 20 19 19 18 15 11 10 8 7 4 2 4 6 6 5 4
3 3 4 4 3 3 1 3 4 5 9 6 8 9 10 12 9 10 17 23 29 29 33 37 41 37 35 36 35 32 30 24 21 25 23 21 17 15 12 10 8 5 4 5 8 9 8 6 3
8 4 1 1 4 3 3 4 5 2 8 15 14 12 13 12 13 13 17 23 25 33 35 34 30 31 34 35 36 33 29 26 23 26 24 21 18 15 13 11 6 4 6 7 9 8 7 4 2
1 2 5 4 3 2 2 3 5 5 13 19 18 13 15 11 11 11 19 20 25 26 31 28 25 34 35 36 34 35 31 25 26 27 26 23 20 18 14 10 7 5 9 5 6 4 2 0 2
3 5 3 4 4 4 1 1 8 8 6 7 10 11 15 13 12 11 12 18 23 28 30 31 38 30 36 36 39 32 26 28 30 33 31 28 25 21 17 11 4 3 5 5 3 2 4 4 4
2 6 5 2 1 3 2 4 6 4 7 8 9 8 8 10 12 14 15 22 24 27 29 26 33 30 34 36 35 30 29 29 31 37 35 33 29 24 18 12 4 2 6 2 3 4 6 7 6
3 2 5 6 3 2 4 7 9 3 5 7 7 4 7 9 10 14 13 22 23 28 31 33 32 32 36 34 32 32 30 32 36 39 36 32 26 23 19 8 6 3 4 3 4 5 8 9 9
2 7 3 3 2 3 4 4 5 8 6 5 6 8 4 5 7 7 9 17 21 27 28 32 34 36 34 33 34 33 32 34 37 35 35 30 25 23 17 10 9 8 5 3 7 9 10 12 11
2 1 5 5 4 4 1 5 7 6 5 4 7 8 7 6 7 6 7 16 22 26 32 34 33 33 31 31 32 32 34 33 32 35 33 30 27 24 13 14 13 9 7 5 7 10 11 12 11
4 7 6 4 4 1 3 6 5 8 7 5 6 7 5 6 7 6 7 11 18 25 29 30 28 28 28 29 31 33 31 30 30 35 33 31 28 18 17 16 14 11 10 8 9 10 12 14 14
Wind_Direction
61 99 100 48 58 64 263 265 302 309 97 192 31 76 129 46 61 230 103 157 157 157 160 159 155 149 145 143 139 137 134 133 131 130 129 126 122 119 114 110 106 101 98 94 92 91 92 98 98
107 113 63 86 87 79 264 262 333 253 242 236 136 120 47 67 58 102 94 151 157 159 162 161 158 152 147 144 141 138 136 135 135 134 131 127 124 121 115 110 105 102 99 95 94 95 98 99 97
117 72 85 99 122 196 221 251 341 232 329 299 95 53 57 359 58 83 142 148 158 158 166 163 160 154 149 144 141 142 138 138 136 135 132 130 127 122 118 111 107 104 103 101 102 97 96 100 102
164 16 39 103 220 253 219 276 266 208 298 23 100 65 87 17 340 127 134 150 157 164 170 167 164 156 151 148 144 147 139 138 139 133 133 132 127 125 121 116 111 108 105 105 100 100 96 93 96
61 52 63 101 247 256 229 261 276 147 150 336 5 113 73 55 85 128 136 154 163 173 177 171 166 158 150 148 142 145 139 138 134 133 134 134 133 129 123 115 111 109 108 102 99 97 95 90 91
39 92 59 288 258 268 270 169 225 36 195 101 64 63 68 101 111 116 131 139 152 162 174 174 164 157 148 152 141 142 136 139 133 137 138 138 136 130 120 115 111 110 108 104 99 101 95 87 85
117 76 195 240 263 303 274 134 222 122 80 35 87 78 76 63 106 122 114 103 124 152 152 158 159 147 145 142 144 140 142 134 137 138 141 138 133 129 122 117 117 113 113 111 101 96 105 95 89
104 92 320 258 246 271 358 93 159 72 90 78 6 149 146 115 110 116 111 97 95 111 112 100 100 119 136 136 145 144 140 138 138 139 137 135 132 131 126 123 119 119 111 103 100 98 102 101 94
133 67 258 259 206 270 222 138 47 55 86 58 17 63 122 120 108 103 99 100 97 97 97 107 112 121 130 133 146 143 137 135 136 139 142 138 138 134 129 129 126 118 107 104 110 109 104 102 93
91 128 224 228 201 283 350 17 120 79 71 67 94 99 124 124 117 110 113 114 108 108 112 111 126 130 128 128 130 133 141 143 144 147 146 146 142 137 138 133 133 130 126 122 116 104 106 93 91
171 205 228 255 199 156 145 165 95 129 99 171 150 134 122 133 137 127 128 129 128 132 132 133 137 150 135 162 170 163 156 156 155 156 151 147 145 145 143 143 136 136 129 125 120 115 96 90 90
175 232 222 322 159 124 141 147 62 43 309 143 159 146 148 149 146 148 151 151 134 141 134 143 153 166 183 191 179 168 165 162 161 163 159 159 157 156 160 155 141 138 126 123 111 103 96 88 78
205 263 213 156 153 112 94 59 106 105 153 153 130 149 149 148 144 155 167 171 162 159 157 171 180 189 190 188 183 176 173 169 169 169 180 173 178 173 161 150 145 139 131 125 114 108 98 81 60
224 296 350 112 170 158 119 161 83 157 167 141 142 169 149 163 158 146 183 173 166 173 182 185 184 190 194 192 188 173 180 180 180 187 188 170 169 165 156 149 147 142 141 130 124 108 85 66 42
291 3 26 356 179 130 134 72 106 151 175 173 176 185 188 165 165 172 188 178 174 178 183 187 195 199 195 195 185 176 180 173 176 180 176 175 175 170 168 162 156 148 144 139 124 94 73 41 19
149 52 10 303 283 91 58 155 142 161 167 185 197 230 219 169 190 190 197 192 190 188 196 205 205 208 200 196 190 187 183 178 179 179 187 187 178 177 173 167 159 153 149 136 114 80 39 11 9
5 301 346 73 256 101 134 136 173 168 171 184 213 217 231 219 200 204 203 202 199 199 203 210 212 208 203 197 196 189 187 186 186 189 188 187 183 177 173 164 154 153 145 119 82 57 43 46 60
318 32 2 137 253 47 119 194 153 179 177 191 209 210 224 222 225 202 202 206 205 207 213 214 207 205 201 198 194 189 191 191 194 197 194 184 172 169 167 158 156 152 140 109 80 78 87 85 96
273 236 240 244 222 163 215 210 181 182 191 190 208 209 208 218 222 207 206 205 207 211 211 213 206 202 202 196 187 190 187 184 184 181 178 176 172 168 169 163 156 140 116 100 116 122 109 86 71
193 12 317 302 19 185 127 263 198 170 210 197 195 217 210 214 196 199 200 204 211 213 214 212 209 203 203 203 197 193 189 186 184 179 175 174 173 170 171 165 155 138 120 122 127 104 88 87 53
334 342 293 220 33 52 86 346 217 190 219 186 200 213 223 208 197 200 195 199 206 209 211 212 210 210 210 203 196 193 188 184 181 178 175 174 176 176 178 166 147 128 110 79 63 52 57 82 53
306 193 262 243 106 203 182 260 265 225 226 230 214 212 214 217 217 205 197 202 207 208 211 209 209 208 206 204 201 199 193 180 192 183 180 175 176 174 169 156 146 125 80 43 34 38 38 68 86
240 48 329 57 104 112 344 96 262 149 230 236 234 220 224 207 206 209 206 208 208 209 213 210 210 210 210 206 208 206 199 192 186 183 177 173 168 166 167 163 143 107 66 32 22 25 32 63 97
315 141 50 45 88 61 316 124 269 187 213 224 228 227 223 203 201 206 210 206 205 209 210 202 207 229 216 210 213 212 205 189 180 177 176 174 172 170 165 158 136 61 354 10 21 13 100 271 290
112 61 354 357 12 224 246 73 242 261 240 241 244 219 216 206 183 183 186 191 199 203 204 197 206 215 216 215 215 211 209 206 197 189 184 177 175 172 172 169 141 12 45 1 318 268 234 245 252
178 140 146 242 209 278 322 251 263 228 288 269 251 249 198 204 191 187 191 190 196 198 203 191 209 213 221 223 219 216 212 207 208 201 195 192 190 184 180 183 185 266 333 242 277 255 247 242 250
192 116 159 105 14 52 263 293 299 359 334 328 320 292 206 191 199 199 190 190 185 196 205 203 205 208 222 223 219 215 212 211 210 205 202 194 192 184 180 202 245 186 166 222 240 240 243 237 248
203 157 92 20 168 252 284 285 243 320 321 322 310 284 258 178 198 195 193 192 192 206 207 214 217 217 219 216 215 212 212 213 213 205 197 193 192 189 193 213 181 171 171 202 226 237 235 230 242
138 186 58 116 136 179 233 258 218 243 241 273 260 255 255 221 203 196 193 197 199 204 211 213 217 221 219 215 214 215 214 212 208 201 200 200 194 191 206 184 182 186 193 210 230 239 226 231 251
150 188 147 135 205 128 161 272 243 240 263 263 276 252 248 230 196 200 191 197 201 207 213 218 215 214 217 217 214 214 215 205 200 200 203 199 196 204 189 188 192 200 209 227 236 233 241 248 257